TimeCDT,TemperatureF,Dew PointF,Humidity,Sea Level PressureIn,VisibilityMPH,Wind Direction,Wind SpeedMPH,Gust SpeedMPH,PrecipitationIn,Events,Conditions,WindDirDegrees,DateUTC
12:54 AM,60.1,51.1,72,29.96,10.0,South,3.5,-,N/A,,Overcast,190,2013-10-19 05:54:00
1:54 AM,59.0,51.1,75,29.94,10.0,South,4.6,-,N/A,,Mostly Cloudy,180,2013-10-19 06:54:00
2:54 AM,57.9,50.0,75,29.93,10.0,SW,4.6,-,N/A,,Mostly Cloudy,230,2013-10-19 07:54:00
3:54 AM,57.0,51.1,81,29.93,10.0,Calm,Calm,-,N/A,,Mostly Cloudy,0,2013-10-19 08:54:00
4:54 AM,55.9,52.0,87,29.93,10.0,South,4.6,-,N/A,,Mostly Cloudy,190,2013-10-19 09:54:00
5:54 AM,55.9,53.1,90,29.94,10.0,WSW,3.5,-,N/A,,Mostly Cloudy,250,2013-10-19 10:54:00
6:28 AM,57.2,53.6,88,29.96,8.0,WNW,10.4,-,0.00,Rain,Light Rain,300,2013-10-19 11:28:00
6:40 AM,57.2,53.6,88,29.97,10.0,NW,8.1,-,0.00,Rain,Light Rain,310,2013-10-19 11:40:00
6:49 AM,57.2,53.6,88,29.98,9.0,NW,10.4,-,0.00,Rain,Light Rain,310,2013-10-19 11:49:00
6:54 AM,57.0,54.0,89,29.98,8.0,NW,12.7,-,0.00,,Overcast,320,2013-10-19 11:54:00
7:48 AM,53.6,50.0,88,30.01,8.0,NNW,9.2,18.4,0.00,,Mostly Cloudy,330,2013-10-19 12:48:00
7:54 AM,54.0,50.0,86,30.01,4.0,NNW,9.2,-,0.00,Rain,Rain,340,2013-10-19 12:54:00
8:37 AM,53.6,50.0,88,30.03,10.0,NNW,8.1,-,0.03,,Overcast,330,2013-10-19 13:37:00
8:54 AM,54.0,50.0,86,30.04,10.0,NW,8.1,-,0.03,,Overcast,320,2013-10-19 13:54:00
9:04 AM,53.6,50.0,88,30.04,10.0,NW,8.1,-,N/A,,Overcast,310,2013-10-19 14:04:00
9:29 AM,53.6,48.2,82,30.05,10.0,NNW,11.5,-,N/A,,Overcast,340,2013-10-19 14:29:00
9:54 AM,52.0,46.9,83,30.06,10.0,NNW,13.8,18.4,N/A,,Overcast,340,2013-10-19 14:54:00
10:33 AM,51.8,46.4,82,30.07,10.0,North,11.5,-,N/A,,Overcast,350,2013-10-19 15:33:00
10:54 AM,52.0,46.0,80,30.07,10.0,North,10.4,-,N/A,,Overcast,350,2013-10-19 15:54:00
11:22 AM,51.8,44.6,76,30.08,10.0,NNW,9.2,-,N/A,,Mostly Cloudy,340,2013-10-19 16:22:00
11:54 AM,53.1,45.0,74,30.07,10.0,NNW,8.1,16.1,N/A,,Overcast,330,2013-10-19 16:54:00
12:54 PM,54.0,44.1,69,30.07,10.0,North,9.2,-,N/A,,Overcast,350,2013-10-19 17:54:00
1:54 PM,55.9,44.1,64,30.06,10.0,WNW,11.5,-,N/A,,Mostly Cloudy,300,2013-10-19 18:54:00
2:38 PM,57.2,42.8,59,30.06,10.0,NNW,6.9,-,N/A,,Scattered Clouds,340,2013-10-19 19:38:00
2:54 PM,55.9,43.0,62,30.06,10.0,WNW,4.6,-,N/A,,Partly Cloudy,290,2013-10-19 19:54:00
3:54 PM,57.9,41.0,53,30.06,10.0,NNW,10.4,-,N/A,,Partly Cloudy,330,2013-10-19 20:54:00
4:54 PM,57.0,39.9,53,30.06,10.0,NW,5.8,-,N/A,,Partly Cloudy,310,2013-10-19 21:54:00
5:54 PM,54.0,39.9,59,30.06,10.0,North,3.5,-,N/A,,Partly Cloudy,360,2013-10-19 22:54:00
6:54 PM,53.1,39.0,59,30.06,10.0,Calm,Calm,-,N/A,,Clear,0,2013-10-19 23:54:00
7:54 PM,50.0,43.0,77,30.06,10.0,Calm,Calm,-,N/A,,Clear,0,2013-10-20 00:54:00
8:54 PM,46.9,42.1,83,30.07,10.0,SSW,4.6,-,N/A,,Clear,200,2013-10-20 01:54:00
9:54 PM,46.0,41.0,83,30.08,10.0,South,3.5,-,N/A,,Clear,190,2013-10-20 02:54:00
10:54 PM,46.0,42.1,86,30.08,10.0,Calm,Calm,-,N/A,,Clear,0,2013-10-20 03:54:00
11:54 PM,45.0,41.0,86,30.07,10.0,Calm,Calm,-,N/A,,Clear,0,2013-10-20 04:54:00